| time (UTC) | temp F | wind direction | speed MPH | gust MPH | rain 1hr in | rain 24hr in | rain mn in | humidity % | barometer mb |
| 20260906205715 | 93 | 138 | 6.0 | 16.0 | 0.00 | 0.00 | 0.00 | 36 | 1013.4 |
| 20260906204943 | 92 | 112 | 6.0 | 13.0 | 0.00 | 0.00 | 0.00 | 36 | 1013.3 |
| 20260906204444 | 92 | 51 | 4.0 | 13.0 | 0.00 | 0.00 | 0.00 | 36 | 1013.4 |
| 20260906203945 | 92 | 234 | 4.0 | 13.0 | 0.00 | 0.00 | 0.00 | 37 | 1013.4 |
| 20260906203444 | 91 | 106 | 6.0 | 13.0 | 0.00 | 0.00 | 0.00 | 36 | 1013.6 |
| 20260906203216 | 91 | 65 | 8.0 | 16.0 | 0.00 | 0.00 | 0.00 | 37 | 1013.7 |
| 20260906202443 | 91 | 96 | 8.0 | 16.0 | 0.00 | 0.00 | 0.00 | 37 | 1013.7 |
| 20260906201941 | 91 | 101 | 7.0 | 16.0 | 0.00 | 0.00 | 0.00 | 37 | 1013.8 |
| 20260906201446 | 92 | 96 | 8.0 | 15.0 | 0.00 | 0.00 | 0.00 | 36 | 1014.0 |
| 20260906201441 | 91 | 118 | 8.0 | 16.0 | 0.00 | 0.00 | 0.00 | 37 | 1014.0 |
| 20260906200442 | 92 | 101 | 7.0 | 15.0 | 0.00 | 0.00 | 0.00 | 36 | 1014.0 |
| 20260906195942 | 92 | 141 | 6.0 | 14.0 | 0.00 | 0.00 | 0.00 | 35 | 1013.8 |
| 20260906195712 | 92 | 146 | 6.0 | 14.0 | 0.00 | 0.00 | 0.00 | 35 | 1014.1 |
| 20260906194943 | 92 | 131 | 6.0 | 13.0 | 0.00 | 0.00 | 0.00 | 35 | 1014.1 |
| 20260906194441 | 92 | 150 | 7.0 | 13.0 | 0.00 | 0.00 | 0.00 | 35 | 1014.2 |
| 20260906193942 | 92 | 136 | 6.0 | 14.0 | 0.00 | 0.00 | 0.00 | 34 | 1014.2 |
| 20260906193441 | 92 | 119 | 5.0 | 14.0 | 0.00 | 0.00 | 0.00 | 35 | 1014.2 |
| 20260906192939 | 92 | 103 | 6.0 | 16.0 | 0.00 | 0.00 | 0.00 | 34 | 1014.3 |
| 20260906192439 | 92 | 170 | 7.0 | 16.0 | 0.00 | 0.00 | 0.00 | 34 | 1014.5 |
| 20260906191938 | 92 | 153 | 5.0 | 15.0 | 0.00 | 0.00 | 0.00 | 35 | 1014.4 |
| 20260906191440 | 91 | 204 | 6.0 | 18.0 | 0.00 | 0.00 | 0.00 | 36 | 1014.5 |
| 20260906190939 | 91 | 166 | 7.0 | 18.0 | 0.00 | 0.00 | 0.00 | 35 | 1014.6 |
| 20260906190439 | 91 | 160 | 5.0 | 14.0 | 0.00 | 0.00 | 0.00 | 36 | 1014.4 |
| 20260906190210 | 91 | 132 | 4.0 | 10.0 | 0.00 | 0.00 | 0.00 | 38 | 1014.5 |
| 20260906185439 | 90 | 101 | 6.0 | 17.0 | 0.00 | 0.00 | 0.00 | 38 | 1014.6 |
| 20260906184942 | 90 | 151 | 6.0 | 16.0 | 0.00 | 0.00 | 0.00 | 38 | 1014.8 |
| 20260906184936 | 89 | 171 | 6.0 | 17.0 | 0.00 | 0.00 | 0.00 | 37 | 1014.8 |
| 20260906183938 | 90 | 240 | 6.0 | 12.0 | 0.00 | 0.00 | 0.00 | 38 | 1014.9 |
| 20260906183438 | 89 | 142 | 5.0 | 15.0 | 0.00 | 0.00 | 0.00 | 39 | 1015.0 |
| 20260906182938 | 89 | 126 | 6.0 | 15.0 | 0.00 | 0.00 | 0.00 | 39 | 1015.1 |
| 20260906182437 | 88 | 209 | 4.0 | 12.0 | 0.00 | 0.00 | 0.00 | 40 | 1015.2 |
| 20260906182208 | 88 | 308 | 3.0 | 11.0 | 0.00 | 0.00 | 0.00 | 40 | 1015.2 |
| 20260906181439 | 88 | 221 | 3.0 | 11.0 | 0.00 | 0.00 | 0.00 | 40 | 1015.4 |
| 20260906180937 | 88 | 117 | 5.0 | 12.0 | 0.00 | 0.00 | 0.00 | 40 | 1015.4 |
| 20260906180442 | 87 | 128 | 6.0 | 14.0 | 0.00 | 0.00 | 0.00 | 42 | 1015.6 |
| 20260906180438 | 88 | 169 | 6.0 | 12.0 | 0.00 | 0.00 | 0.00 | 40 | 1015.6 |
| 20260906175436 | 87 | 69 | 4.0 | 14.0 | 0.00 | 0.00 | 0.00 | 42 | 1015.7 |
| 20260906174937 | 87 | 252 | 4.0 | 13.0 | 0.00 | 0.00 | 0.00 | 42 | 1015.7 |
| 20260906174708 | 86 | 106 | 5.0 | 13.0 | 0.00 | 0.00 | 0.00 | 42 | 1015.9 |
| 20260906173937 | 85 | 107 | 5.0 | 11.0 | 0.00 | 0.00 | 0.00 | 44 | 1015.9 |
| 20260906173436 | 85 | 296 | 6.0 | 16.0 | 0.00 | 0.00 | 0.00 | 43 | 1016.0 |
| 20260906172938 | 85 | 163 | 4.0 | 16.0 | 0.00 | 0.00 | 0.00 | 44 | 1016.1 |
| 20260906172438 | 85 | 254 | 2.0 | 9.0 | 0.00 | 0.00 | 0.00 | 43 | 1016.1 |
| 20260906172209 | 85 | 29 | 2.0 | 9.0 | 0.00 | 0.00 | 0.00 | 43 | 1016.3 |
| 20260906171437 | 85 | 158 | 4.0 | 9.0 | 0.00 | 0.00 | 0.00 | 44 | 1016.3 |
| 20260906170937 | 85 | 184 | 4.0 | 11.0 | 0.00 | 0.00 | 0.00 | 44 | 1016.3 |
| 20260906170437 | 84 | 111 | 4.0 | 12.0 | 0.00 | 0.00 | 0.00 | 45 | 1016.5 |
| 20260906165938 | 84 | 163 | 5.0 | 12.0 | 0.00 | 0.00 | 0.00 | 44 | 1016.5 |
| 20260906165708 | 84 | 49 | 3.0 | 9.0 | 0.00 | 0.00 | 0.00 | 45 | 1016.6 |
| 20260906164941 | 83 | 107 | 3.0 | 10.0 | 0.00 | 0.00 | 0.00 | 46 | 1016.6 |
| 20260906164936 | 84 | 9 | 3.0 | 10.0 | 0.00 | 0.00 | 0.00 | 44 | 1016.5 |
| 20260906163937 | 83 | 158 | 3.0 | 10.0 | 0.00 | 0.00 | 0.00 | 46 | 1016.6 |
| 20260906163438 | 83 | 333 | 4.0 | 13.0 | 0.00 | 0.00 | 0.00 | 46 | 1016.7 |
| 20260906162936 | 82 | 138 | 4.0 | 13.0 | 0.00 | 0.00 | 0.00 | 46 | 1016.8 |
| 20260906162704 | 82 | 300 | 5.0 | 14.0 | 0.00 | 0.00 | 0.00 | 47 | 1016.8 |
| 20260906162202 | 81 | 345 | 4.0 | 14.0 | 0.00 | 0.00 | 0.00 | 48 | 1016.8 |
| 20260906161431 | 81 | 24 | 3.0 | 10.0 | 0.00 | 0.00 | 0.00 | 48 | 1016.9 |
| 20260906160929 | 81 | 71 | 2.0 | 11.0 | 0.00 | 0.00 | 0.00 | 48 | 1016.9 |
| 20260906160429 | 80 | 202 | 3.0 | 13.0 | 0.00 | 0.00 | 0.00 | 49 | 1016.8 |
| 20260906155929 | 79 | 117 | 4.0 | 13.0 | 0.00 | 0.00 | 0.00 | 50 | 1016.7 |
| 20260906155429 | 79 | 74 | 4.0 | 9.0 | 0.00 | 0.00 | 0.00 | 51 | 1016.8 |
| 20260906154927 | 78 | 108 | 3.0 | 9.0 | 0.00 | 0.00 | 0.00 | 52 | 1016.8 |
| 20260906154428 | 78 | 270 | 3.0 | 9.0 | 0.00 | 0.00 | 0.00 | 52 | 1016.7 |
| 20260906153925 | 78 | 188 | 3.0 | 11.0 | 0.00 | 0.00 | 0.00 | 53 | 1016.8 |
| 20260906153425 | 78 | 11 | 3.0 | 11.0 | 0.00 | 0.00 | 0.00 | 53 | 1016.7 |
| 20260906152930 | 77 | 178 | 3.0 | 10.0 | 0.00 | 0.00 | 0.00 | 54 | 1016.8 |
| 20260906152926 | 77 | 80 | 3.0 | 8.0 | 0.00 | 0.00 | 0.00 | 53 | 1016.8 |
| 20260906151925 | 76 | 66 | 3.0 | 10.0 | 0.00 | 0.00 | 0.00 | 56 | 1016.8 |
| 20260906151423 | 75 | 153 | 2.0 | 5.0 | 0.00 | 0.00 | 0.00 | 57 | 1016.9 |
| 20260906150922 | 74 | 145 | 2.0 | 7.0 | 0.00 | 0.00 | 0.00 | 58 | 1016.9 |
| 20260906150422 | 74 | 102 | 3.0 | 7.0 | 0.00 | 0.00 | 0.00 | 59 | 1016.9 |
| 20260906145924 | 73 | 111 | 4.0 | 8.0 | 0.00 | 0.00 | 0.00 | 60 | 1016.9 |
| 20260906145653 | 73 | 95 | 5.0 | 9.0 | 0.00 | 0.00 | 0.00 | 60 | 1017.0 |
| 20260906144922 | 72 | 97 | 5.0 | 10.0 | 0.00 | 0.00 | 0.00 | 61 | 1017.0 |
| 20260906144652 | 72 | 81 | 5.0 | 12.0 | 0.00 | 0.00 | 0.00 | 62 | 1017.1 |
| 20260906143920 | 71 | 90 | 6.0 | 12.0 | 0.00 | 0.00 | 0.00 | 63 | 1017.0 |
| 20260906143421 | 71 | 123 | 5.0 | 11.0 | 0.00 | 0.00 | 0.00 | 64 | 1017.1 |
| 20260906142922 | 70 | 127 | 6.0 | 11.0 | 0.00 | 0.00 | 0.00 | 65 | 1017.1 |
| 20260906142421 | 70 | 151 | 6.0 | 11.0 | 0.00 | 0.00 | 0.00 | 66 | 1017.1 |
| 20260906141920 | 69 | 132 | 6.0 | 11.0 | 0.00 | 0.00 | 0.00 | 68 | 1017.3 |
| 20260906141421 | 68 | 112 | 5.0 | 10.0 | 0.00 | 0.00 | 0.00 | 70 | 1017.3 |
| 20260906140918 | 67 | 138 | 4.0 | 10.0 | 0.00 | 0.00 | 0.00 | 72 | 1017.3 |
| 20260906140418 | 65 | 146 | 3.0 | 7.0 | 0.00 | 0.00 | 0.00 | 75 | 1017.3 |
| 20260906135920 | 64 | 143 | 3.0 | 6.0 | 0.00 | 0.00 | 0.00 | 77 | 1017.4 |
| 20260906135419 | 64 | 139 | 2.0 | 6.0 | 0.00 | 0.00 | 0.00 | 78 | 1017.5 |
| 20260906134918 | 63 | 116 | 1.0 | 6.0 | 0.00 | 0.00 | 0.00 | 80 | 1017.5 |
| 20260906134419 | 62 | 63 | 1.0 | 6.0 | 0.00 | 0.00 | 0.00 | 81 | 1017.6 |
| 20260906133916 | 61 | 105 | 1.0 | 6.0 | 0.00 | 0.00 | 0.00 | 82 | 1017.5 |
| 20260906133418 | 61 | 117 | 0.0 | 6.0 | 0.00 | 0.00 | 0.00 | 82 | 1017.4 |
| 20260906132914 | 60 | 147 | 0.0 | 1.0 | 0.00 | 0.00 | 0.00 | 82 | 1017.5 |
| 20260906132416 | 60 | 147 | 0.0 | 0.0 | 0.00 | 0.00 | 0.00 | 82 | 1017.4 |
| 20260906131914 | 60 | 147 | 0.0 | 0.0 | 0.00 | 0.00 | 0.00 | 82 | 1017.3 |
| 20260906131414 | 59 | 147 | 0.0 | 0.0 | 0.00 | 0.00 | 0.00 | 81 | 1017.4 |
| 20260906130914 | 59 | 147 | 0.0 | 0.0 | 0.00 | 0.00 | 0.00 | 81 | 1017.3 |
| 20260906130414 | 59 | 147 | 0.0 | 0.0 | 0.00 | 0.00 | 0.00 | 81 | 1017.3 |
| 20260906125911 | 59 | 147 | 0.0 | 1.0 | 0.00 | 0.00 | 0.00 | 81 | 1017.3 |
| 20260906125415 | 59 | 147 | 2.0 | 4.0 | 0.00 | 0.00 | 0.00 | 81 | 1017.3 |
| 20260906125411 | 59 | 147 | 0.0 | 3.0 | 0.00 | 0.00 | 0.00 | 81 | 1017.3 |
| 20260906124639 | 59 | 147 | 2.0 | 4.0 | 0.00 | 0.00 | 0.00 | 81 | 1017.3 |
| 20260906123908 | 59 | 135 | 1.0 | 3.0 | 0.00 | 0.00 | 0.00 | 81 | 1017.3 |
| 20260906123641 | 59 | 134 | 2.0 | 4.0 | 0.00 | 0.00 | 0.00 | 81 | 1017.3 |
| 20260906122906 | 59 | 134 | 2.0 | 4.0 | 0.00 | 0.00 | 0.00 | 81 | 1017.4 |
| 20260906122639 | 59 | 134 | 1.0 | 3.0 | 0.00 | 0.00 | 0.00 | 80 | 1017.5 |
| 20260906121908 | 59 | 134 | 1.0 | 4.0 | 0.00 | 0.00 | 0.00 | 80 | 1017.3 |
| 20260906121406 | 59 | 134 | 1.0 | 4.0 | 0.00 | 0.00 | 0.00 | 79 | 1017.1 |
| 20260906120905 | 59 | 97 | 1.0 | 3.0 | 0.00 | 0.00 | 0.00 | 79 | 1017.1 |
| 20260906120404 | 60 | 75 | 0.0 | 2.0 | 0.00 | 0.00 | 0.00 | 78 | 1017.1 |
| 20260906115905 | 60 | 75 | 0.0 | 1.0 | 0.00 | 0.00 | 0.00 | 78 | 1016.9 |
| 20260906115405 | 60 | 75 | 1.0 | 3.0 | 0.00 | 0.00 | 0.00 | 77 | 1016.9 |
| 20260906114905 | 60 | 75 | 1.0 | 4.0 | 0.00 | 0.00 | 0.00 | 78 | 1016.9 |
| 20260906114636 | 61 | 103 | 2.0 | 4.0 | 0.00 | 0.00 | 0.00 | 77 | 1016.8 |
| 20260906113908 | 61 | 105 | 2.0 | 4.0 | 0.00 | 0.00 | 0.00 | 76 | 1016.8 |
| 20260906113634 | 61 | 153 | 2.0 | 4.0 | 0.00 | 0.00 | 0.00 | 76 | 1016.8 |
| 20260906112902 | 62 | 131 | 2.0 | 4.0 | 0.00 | 0.00 | 0.00 | 78 | 1016.8 |
| 20260906112404 | 61 | 140 | 1.0 | 3.0 | 0.00 | 0.00 | 0.00 | 77 | 1016.7 |
| 20260906111903 | 62 | 140 | 1.0 | 5.0 | 0.00 | 0.00 | 0.00 | 75 | 1016.7 |
| 20260906111401 | 62 | 140 | 2.0 | 6.0 | 0.00 | 0.00 | 0.00 | 77 | 1016.7 |
| 20260906111130 | 62 | 156 | 1.0 | 6.0 | 0.00 | 0.00 | 0.00 | 77 | 1016.7 |
| 20260906110401 | 62 | 148 | 0.0 | 2.0 | 0.00 | 0.00 | 0.00 | 76 | 1016.6 |
| 20260906105900 | 62 | 148 | 0.0 | 2.0 | 0.00 | 0.00 | 0.00 | 76 | 1016.7 |
| 20260906105357 | 62 | 146 | 0.0 | 0.0 | 0.00 | 0.00 | 0.00 | 76 | 1016.6 |
| 20260906104858 | 63 | 146 | 0.0 | 3.0 | 0.00 | 0.00 | 0.00 | 75 | 1016.6 |
| 20260906104359 | 63 | 146 | 0.0 | 4.0 | 0.00 | 0.00 | 0.00 | 76 | 1016.6 |
| 20260906103855 | 63 | 146 | 0.0 | 4.0 | 0.00 | 0.00 | 0.00 | 75 | 1016.3 |
| 20260906103357 | 63 | 115 | 0.0 | 3.0 | 0.00 | 0.00 | 0.00 | 75 | 1016.3 |
| 20260906102855 | 63 | 115 | 0.0 | 3.0 | 0.00 | 0.00 | 0.00 | 74 | 1016.6 |
| 20260906102351 | 64 | 115 | 0.0 | 2.0 | 0.00 | 0.00 | 0.00 | 74 | 1016.6 |
| 20260906101853 | 64 | 115 | 1.0 | 4.0 | 0.00 | 0.00 | 0.00 | 73 | 1016.6 |
| 20260906101353 | 64 | 115 | 2.0 | 4.0 | 0.00 | 0.00 | 0.00 | 73 | 1016.6 |
| 20260906100850 | 64 | 74 | 3.0 | 5.0 | 0.00 | 0.00 | 0.00 | 73 | 1016.6 |
| 20260906100355 | 64 | 56 | 2.0 | 7.0 | 0.00 | 0.00 | 0.00 | 75 | 1016.5 |
| 20260906100350 | 64 | 131 | 3.0 | 7.0 | 0.00 | 0.00 | 0.00 | 74 | 1016.6 |
| 20260906095349 | 64 | 355 | 3.0 | 6.0 | 0.00 | 0.00 | 0.00 | 76 | 1016.5 |
| 20260906094849 | 63 | 117 | 2.0 | 6.0 | 0.00 | 0.00 | 0.00 | 77 | 1016.6 |
| 20260906094349 | 63 | 93 | 2.0 | 9.0 | 0.00 | 0.00 | 0.00 | 78 | 1016.6 |
| 20260906093851 | 62 | 68 | 3.0 | 9.0 | 0.00 | 0.00 | 0.00 | 79 | 1016.5 |
| 20260906093350 | 62 | 76 | 2.0 | 6.0 | 0.00 | 0.00 | 0.00 | 78 | 1016.3 |
| 20260906092849 | 62 | 119 | 1.0 | 4.0 | 0.00 | 0.00 | 0.00 | 80 | 1016.3 |
| 20260906091852 | 62 | 121 | 0.0 | 1.0 | 0.00 | 0.00 | 0.00 | 77 | 1016.3 |
| 20260906091351 | 62 | 121 | 0.0 | 3.0 | 0.00 | 0.00 | 0.00 | 77 | 1016.3 |
| 20260906090849 | 62 | 121 | 0.0 | 3.0 | 0.00 | 0.00 | 0.00 | 77 | 1016.3 |
| 20260906090351 | 63 | 132 | 2.0 | 7.0 | 0.00 | 0.00 | 0.00 | 77 | 1016.2 |
| 20260906085849 | 63 | 133 | 2.0 | 7.0 | 0.00 | 0.00 | 0.00 | 77 | 1016.2 |
| 20260906085350 | 63 | 153 | 0.0 | 7.0 | 0.00 | 0.00 | 0.00 | 77 | 1016.2 |
| 20260906085120 | 63 | 84 | 0.0 | 1.0 | 0.00 | 0.00 | 0.00 | 76 | 1016.2 |
| 20260906084346 | 64 | 84 | 0.0 | 3.0 | 0.00 | 0.00 | 0.00 | 76 | 1016.0 |
| 20260906083845 | 64 | 84 | 0.0 | 3.0 | 0.00 | 0.00 | 0.00 | 75 | 1016.0 |
| 20260906083616 | 64 | 84 | 1.0 | 4.0 | 0.00 | 0.00 | 0.00 | 75 | 1015.8 |
| 20260906083113 | 65 | 51 | 1.0 | 4.0 | 0.00 | 0.00 | 0.00 | 74 | 1015.8 |
| 20260906082341 | 65 | 156 | 0.0 | 2.0 | 0.00 | 0.00 | 0.00 | 73 | 1015.7 |
| 20260906081841 | 65 | 184 | 0.0 | 6.0 | 0.00 | 0.00 | 0.00 | 73 | 1015.6 |
| 20260906081341 | 66 | 185 | 0.0 | 6.0 | 0.00 | 0.00 | 0.00 | 72 | 1015.6 |
| 20260906081110 | 66 | 152 | 0.0 | 1.0 | 0.00 | 0.00 | 0.00 | 72 | 1015.8 |
| 20260906080338 | 66 | 152 | 1.0 | 5.0 | 0.00 | 0.00 | 0.00 | 72 | 1015.9 |
| 20260906080106 | 67 | 171 | 1.0 | 5.0 | 0.00 | 0.00 | 0.00 | 72 | 1015.8 |
| 20260906075337 | 67 | 129 | 0.0 | 5.0 | 0.00 | 0.00 | 0.00 | 71 | 1015.8 |
| 20260906074837 | 67 | 156 | 1.0 | 6.0 | 0.00 | 0.00 | 0.00 | 71 | 1016.0 |
| 20260906074337 | 67 | 156 | 3.0 | 11.0 | 0.00 | 0.00 | 0.00 | 71 | 1016.0 |
| 20260906073836 | 67 | 178 | 4.0 | 11.0 | 0.00 | 0.00 | 0.00 | 71 | 1016.1 |
| 20260906073335 | 67 | 193 | 4.0 | 10.0 | 0.00 | 0.00 | 0.00 | 71 | 1016.1 |
| 20260906072835 | 67 | 128 | 6.0 | 15.0 | 0.00 | 0.00 | 0.00 | 71 | 1016.2 |
| 20260906072336 | 68 | 126 | 6.0 | 15.0 | 0.00 | 0.00 | 0.00 | 71 | 1016.1 |
| 20260906071834 | 68 | 191 | 6.0 | 15.0 | 0.00 | 0.00 | 0.00 | 71 | 1016.0 |
| 20260906071333 | 68 | 131 | 6.0 | 15.0 | 0.00 | 0.00 | 0.00 | 71 | 1016.1 |
| 20260906071103 | 67 | 123 | 5.0 | 11.0 | 0.00 | 0.00 | 0.00 | 71 | 1016.0 |
| 20260906070333 | 67 | 150 | 4.0 | 11.0 | 0.00 | 0.00 | 0.00 | 73 | 1016.0 |
| 20260906065830 | 67 | 138 | 4.0 | 14.0 | 0.00 | 0.00 | 0.00 | 74 | 1016.0 |
| 20260906065559 | 67 | 112 | 5.0 | 14.0 | 0.00 | 0.00 | 0.00 | 74 | 1016.0 |
| 20260906064829 | 68 | 91 | 6.0 | 14.0 | 0.00 | 0.00 | 0.00 | 74 | 1016.1 |
| 20260906064330 | 68 | 131 | 6.0 | 14.0 | 0.00 | 0.00 | 0.00 | 74 | 1016.1 |
| 20260906064059 | 68 | 141 | 6.0 | 14.0 | 0.00 | 0.00 | 0.00 | 74 | 1016.0 |
| 20260906063328 | 68 | 148 | 5.0 | 13.0 | 0.00 | 0.00 | 0.00 | 74 | 1016.1 |
| 20260906062826 | 68 | 146 | 5.0 | 13.0 | 0.00 | 0.00 | 0.00 | 74 | 1016.2 |
| 20260906062325 | 68 | 159 | 6.0 | 12.0 | 0.00 | 0.00 | 0.00 | 73 | 1016.1 |
| 20260906062056 | 68 | 136 | 6.0 | 15.0 | 0.00 | 0.00 | 0.00 | 73 | 1016.2 |
| 20260906061327 | 68 | 165 | 5.0 | 15.0 | 0.00 | 0.00 | 0.00 | 72 | 1016.3 |
| 20260906061056 | 68 | 144 | 5.0 | 16.0 | 0.00 | 0.00 | 0.00 | 72 | 1016.2 |
| 20260906060326 | 69 | 114 | 5.0 | 16.0 | 0.00 | 0.00 | 0.00 | 72 | 1016.2 |
| 20260906055823 | 69 | 163 | 5.0 | 12.0 | 0.00 | 0.00 | 0.00 | 71 | 1016.3 |
| 20260906055322 | 69 | 123 | 5.0 | 12.0 | 0.00 | 0.00 | 0.00 | 71 | 1016.2 |
| 20260906054822 | 69 | 101 | 4.0 | 10.0 | 0.00 | 0.00 | 0.00 | 71 | 1015.9 |
| 20260906054323 | 69 | 200 | 4.0 | 12.0 | 0.00 | 0.00 | 0.00 | 70 | 1016.0 |
| 20260906053820 | 69 | 163 | 4.0 | 12.0 | 0.00 | 0.00 | 0.00 | 70 | 1015.9 |
| 20260906053321 | 69 | 153 | 5.0 | 11.0 | 0.00 | 0.00 | 0.00 | 71 | 1015.8 |
| 20260906053051 | 69 | 133 | 5.0 | 11.0 | 0.00 | 0.00 | 0.00 | 71 | 1015.6 |
| 20260906052321 | 70 | 169 | 4.0 | 12.0 | 0.00 | 0.00 | 0.00 | 71 | 1015.7 |
| 20260906051818 | 70 | 149 | 4.0 | 12.0 | 0.00 | 0.00 | 0.00 | 71 | 1015.7 |
| 20260906051320 | 70 | 102 | 5.0 | 12.0 | 0.00 | 0.00 | 0.00 | 71 | 1015.7 |
| 20260906050820 | 70 | 134 | 4.0 | 12.0 | 0.00 | 0.00 | 0.00 | 71 | 1015.7 |
| 20260906050547 | 70 | 82 | 3.0 | 8.0 | 0.00 | 0.00 | 0.00 | 71 | 1015.7 |
| 20260906050437 | 70 | 108 | 3.0 | 7.0 | 0.00 | 0.00 | 0.00 | 71 | 1015.6 |
| 20260906045318 | 70 | 115 | 3.0 | 9.0 | 0.00 | 0.00 | 0.00 | 70 | 1015.4 |
| 20260906044817 | 70 | 132 | 3.0 | 9.0 | 0.00 | 0.00 | 0.00 | 71 | 1015.4 |
| 20260906044315 | 70 | 86 | 5.0 | 12.0 | 0.00 | 0.00 | 0.00 | 71 | 1015.2 |
| 20260906043816 | 70 | 150 | 7.0 | 12.0 | 0.00 | 0.00 | 0.00 | 71 | 1015.2 |
| 20260906043317 | 70 | 122 | 8.0 | 15.0 | 0.00 | 0.00 | 0.00 | 71 | 1015.3 |
| 20260906042817 | 70 | 144 | 8.0 | 15.0 | 0.00 | 0.00 | 0.00 | 71 | 1015.4 |
| 20260906042314 | 70 | 158 | 7.0 | 14.0 | 0.00 | 0.00 | 0.00 | 72 | 1015.4 |
| 20260906041815 | 69 | 192 | 7.0 | 14.0 | 0.00 | 0.00 | 0.00 | 73 | 1015.6 |
| 20260906041312 | 69 | 123 | 7.0 | 16.0 | 0.00 | 0.00 | 0.00 | 73 | 1015.8 |
| 20260906040812 | 69 | 150 | 8.0 | 16.0 | 0.00 | 0.00 | 0.00 | 73 | 1015.9 |
| 20260906040312 | 69 | 131 | 8.0 | 16.0 | 0.00 | 0.00 | 0.00 | 73 | 1016.0 |
| 20260906035811 | 69 | 123 | 8.0 | 16.0 | 0.00 | 0.00 | 0.00 | 73 | 1016.2 |
| 20260906035312 | 69 | 145 | 8.0 | 16.0 | 0.00 | 0.00 | 0.00 | 73 | 1016.3 |
| 20260906034814 | 69 | 140 | 8.0 | 18.0 | 0.00 | 0.00 | 0.00 | 72 | 1016.1 |
| 20260906034311 | 69 | 136 | 9.0 | 18.0 | 0.00 | 0.00 | 0.00 | 72 | 1016.1 |
| 20260906033813 | 69 | 141 | 9.0 | 21.0 | 0.00 | 0.00 | 0.00 | 72 | 1016.3 |
| 20260906033311 | 69 | 146 | 9.0 | 21.0 | 0.00 | 0.00 | 0.00 | 71 | 1016.2 |
| 20260906032812 | 69 | 169 | 7.0 | 19.0 | 0.00 | 0.00 | 0.00 | 72 | 1016.2 |
| 20260906032312 | 70 | 114 | 9.0 | 26.0 | 0.00 | 0.00 | 0.00 | 73 | 1016.2 |
| 20260906032043 | 70 | 158 | 9.0 | 26.0 | 0.00 | 0.00 | 0.00 | 71 | 1016.2 |
| 20260906031313 | 71 | 154 | 7.0 | 14.0 | 0.00 | 0.00 | 0.00 | 69 | 1016.0 |
| 20260906030812 | 71 | 167 | 6.0 | 14.0 | 0.00 | 0.00 | 0.00 | 68 | 1015.9 |
| 20260906030312 | 71 | 160 | 6.0 | 13.0 | 0.00 | 0.00 | 0.00 | 67 | 1015.7 |
| 20260906025811 | 71 | 128 | 6.0 | 13.0 | 0.00 | 0.00 | 0.00 | 68 | 1015.7 |
| 20260906025310 | 71 | 127 | 6.0 | 12.0 | 0.00 | 0.00 | 0.00 | 69 | 1015.8 |
| 20260906024814 | 71 | 134 | 7.0 | 16.0 | 0.00 | 0.00 | 0.00 | 70 | 1015.7 |
| 20260906024809 | 71 | 119 | 6.0 | 12.0 | 0.00 | 0.00 | 0.00 | 70 | 1015.8 |
| 20260906023809 | 71 | 169 | 8.0 | 16.0 | 0.00 | 0.00 | 0.00 | 70 | 1015.3 |
| 20260906023315 | 71 | 123 | 6.0 | 17.0 | 0.00 | 0.00 | 0.00 | 73 | 1015.6 |
| 20260906023310 | 71 | 167 | 6.0 | 17.0 | 0.00 | 0.00 | 0.00 | 72 | 1015.6 |
| 20260906022542 | 71 | 130 | 7.0 | 14.0 | 0.00 | 0.00 | 0.00 | 74 | 1015.6 |
| 20260906021810 | 71 | 76 | 6.0 | 12.0 | 0.00 | 0.00 | 0.00 | 72 | 1015.8 |
| 20260906021313 | 71 | 124 | 5.0 | 18.0 | 0.00 | 0.00 | 0.00 | 70 | 1015.8 |
| 20260906021044 | 71 | 101 | 6.0 | 18.0 | 0.00 | 0.00 | 0.00 | 68 | 1015.8 |
| 20260906020310 | 71 | 166 | 6.0 | 14.0 | 0.00 | 0.00 | 0.00 | 68 | 1015.9 |
| 20260906015809 | 71 | 128 | 6.0 | 14.0 | 0.00 | 0.00 | 0.00 | 66 | 1015.8 |
| 20260906015310 | 71 | 130 | 7.0 | 14.0 | 0.00 | 0.00 | 0.00 | 65 | 1015.8 |
| 20260906014810 | 71 | 93 | 7.0 | 14.0 | 0.00 | 0.00 | 0.00 | 65 | 1015.7 |
| 20260906014311 | 70 | 88 | 8.0 | 18.0 | 0.00 | 0.00 | 0.00 | 65 | 1015.6 |
| 20260906014041 | 70 | 135 | 10.0 | 23.0 | 0.00 | 0.00 | 0.00 | 66 | 1015.8 |
| 20260906013307 | 71 | 103 | 10.0 | 23.0 | 0.00 | 0.00 | 0.00 | 66 | 1015.8 |
| 20260906012808 | 72 | 140 | 10.0 | 23.0 | 0.00 | 0.00 | 0.00 | 66 | 1015.7 |
| 20260906012307 | 72 | 118 | 10.0 | 23.0 | 0.00 | 0.00 | 0.00 | 66 | 1015.8 |
| 20260906011808 | 73 | 105 | 6.0 | 21.0 | 0.00 | 0.00 | 0.00 | 66 | 1015.3 |
| 20260906011307 | 73 | 47 | 4.0 | 12.0 | 0.00 | 0.00 | 0.00 | 66 | 1015.3 |
| 20260906010809 | 74 | 158 | 4.0 | 12.0 | 0.00 | 0.00 | 0.00 | 66 | 1015.2 |
| 20260906010540 | 74 | 84 | 5.0 | 14.0 | 0.00 | 0.00 | 0.00 | 66 | 1014.8 |
| 20260906005808 | 74 | 68 | 6.0 | 17.0 | 0.00 | 0.00 | 0.00 | 65 | 1014.8 |
| 20260906005309 | 75 | 258 | 4.0 | 17.0 | 0.00 | 0.00 | 0.00 | 64 | 1014.5 |
| 20260906004809 | 75 | 184 | 3.0 | 19.0 | 0.00 | 0.00 | 0.00 | 63 | 1014.8 |
| 20260906004306 | 76 | 92 | 6.0 | 19.0 | 0.00 | 0.00 | 0.00 | 61 | 1014.6 |
| 20260906003807 | 76 | 135 | 8.0 | 19.0 | 0.00 | 0.00 | 0.00 | 61 | 1014.5 |
| 20260906003306 | 76 | 173 | 8.0 | 19.0 | 0.00 | 0.00 | 0.00 | 60 | 1014.5 |
| 20260906002805 | 77 | 80 | 7.0 | 18.0 | 0.00 | 0.00 | 0.00 | 59 | 1014.6 |
| 20260906002306 | 77 | 24 | 7.0 | 15.0 | 0.00 | 0.00 | 0.00 | 59 | 1014.5 |
| 20260906001807 | 78 | 140 | 6.0 | 24.0 | 0.00 | 0.00 | 0.00 | 57 | 1014.6 |
| 20260906001537 | 80 | 119 | 8.0 | 24.0 | 0.00 | 0.00 | 0.00 | 53 | 1014.8 |
| 20260906000805 | 81 | 103 | 11.0 | 25.0 | 0.00 | 0.00 | 0.00 | 48 | 1014.1 |
| 20260906000304 | 86 | 149 | 9.0 | 25.0 | 0.00 | 0.00 | 0.00 | 44 | 1014.3 |
| 20260905235804 | 88 | 87 | 7.0 | 20.0 | 0.00 | 0.00 | 0.00 | 35 | 1013.8 |
| 20260905235301 | 89 | 78 | 6.0 | 15.0 | 0.00 | 0.00 | 0.00 | 35 | 1013.5 |
| 20260905234802 | 89 | 146 | 6.0 | 16.0 | 0.00 | 0.00 | 0.00 | 34 | 1012.9 |
| 20260905234259 | 90 | 115 | 6.0 | 16.0 | 0.00 | 0.00 | 0.00 | 35 | 1013.0 |
| 20260905233759 | 91 | 73 | 5.0 | 12.0 | 0.00 | 0.00 | 0.00 | 34 | 1013.0 |
| 20260905233259 | 92 | 94 | 4.0 | 11.0 | 0.00 | 0.00 | 0.00 | 36 | 1012.8 |
| 20260905232800 | 92 | 186 | 4.0 | 11.0 | 0.00 | 0.00 | 0.00 | 36 | 1012.7 |
| 20260905232300 | 92 | 77 | 3.0 | 10.0 | 0.00 | 0.00 | 0.00 | 35 | 1012.6 |
| 20260905231759 | 92 | 64 | 2.0 | 10.0 | 0.00 | 0.00 | 0.00 | 35 | 1012.7 |
| 20260905231529 | 92 | 46 | 2.0 | 10.0 | 0.00 | 0.00 | 0.00 | 33 | 1012.7 |
| 20260905230801 | 92 | 293 | 1.0 | 8.0 | 0.00 | 0.00 | 0.00 | 29 | 1012.7 |
| 20260905230258 | 92 | 17 | 2.0 | 10.0 | 0.00 | 0.00 | 0.00 | 28 | 1012.8 |
| 20260905225758 | 92 | 0 | 2.0 | 10.0 | 0.00 | 0.00 | 0.00 | 28 | 1012.8 |
| 20260905225257 | 93 | 115 | 2.0 | 8.0 | 0.00 | 0.00 | 0.00 | 27 | 1012.6 |
| 20260905224757 | 93 | 255 | 3.0 | 9.0 | 0.00 | 0.00 | 0.00 | 27 | 1012.5 |
| 20260905224257 | 93 | 286 | 4.0 | 9.0 | 0.00 | 0.00 | 0.00 | 27 | 1012.4 |
| 20260905223759 | 94 | 281 | 4.0 | 9.0 | 0.00 | 0.00 | 0.00 | 26 | 1012.4 |
| 20260905223529 | 94 | 263 | 4.0 | 9.0 | 0.00 | 0.00 | 0.00 | 26 | 1012.2 |
| 20260905222758 | 94 | 257 | 4.0 | 10.0 | 0.00 | 0.00 | 0.00 | 26 | 1012.4 |
| 20260905222257 | 95 | 300 | 6.0 | 14.0 | 0.00 | 0.00 | 0.00 | 26 | 1012.6 |
| 20260905221758 | 96 | 281 | 7.0 | 14.0 | 0.00 | 0.00 | 0.00 | 25 | 1012.6 |
| 20260905221257 | 96 | 277 | 6.0 | 11.0 | 0.00 | 0.00 | 0.00 | 25 | 1012.7 |
| 20260905220757 | 96 | 311 | 5.0 | 11.0 | 0.00 | 0.00 | 0.00 | 25 | 1012.7 |
| 20260905220258 | 96 | 278 | 6.0 | 11.0 | 0.00 | 0.00 | 0.00 | 23 | 1012.7 |
| 20260905215757 | 97 | 322 | 5.0 | 11.0 | 0.00 | 0.00 | 0.00 | 24 | 1012.8 |
| 20260905215258 | 97 | 269 | 4.0 | 13.0 | 0.00 | 0.00 | 0.00 | 23 | 1012.7 |
| 20260905214755 | 96 | 247 | 3.0 | 13.0 | 0.00 | 0.00 | 0.00 | 23 | 1012.8 |
| 20260905214255 | 96 | 275 | 2.0 | 13.0 | 0.00 | 0.00 | 0.00 | 23 | 1012.9 |
| 20260905213755 | 96 | 316 | 3.0 | 9.0 | 0.00 | 0.00 | 0.00 | 23 | 1013.0 |
| 20260905213256 | 96 | 133 | 5.0 | 11.0 | 0.00 | 0.00 | 0.00 | 24 | 1013.2 |
| 20260905212755 | 96 | 165 | 5.0 | 13.0 | 0.00 | 0.00 | 0.00 | 23 | 1013.3 |
| 20260905212255 | 96 | 142 | 3.0 | 13.0 | 0.00 | 0.00 | 0.00 | 24 | 1013.3 |
| 20260905211755 | 96 | 88 | 4.0 | 11.0 | 0.00 | 0.00 | 0.00 | 23 | 1013.4 |
| 20260905211256 | 97 | 143 | 4.0 | 11.0 | 0.00 | 0.00 | 0.00 | 23 | 1013.5 |
| 20260905210757 | 98 | 138 | 3.0 | 10.0 | 0.00 | 0.00 | 0.00 | 23 | 1013.5 |
| 20260905210257 | 98 | 268 | 2.0 | 6.0 | 0.00 | 0.00 | 0.00 | 23 | 1013.5 |